TimeEDT,TemperatureF,Dew PointF,Humidity,Sea Level PressureIn,VisibilityMPH,Wind Direction,Wind SpeedMPH,Gust SpeedMPH,PrecipitationIn,Events,Conditions,WindDirDegrees,DateUTC
12:15 AM,35.2,28.9,78,30.25,10.0,SW,8.1,-,N/A,,Clear,220,2013-04-26 04:15:00
12:35 AM,35.2,29.1,78,30.25,10.0,SSW,6.9,-,N/A,,Clear,210,2013-04-26 04:35:00
12:55 AM,37.0,29.1,73,30.26,10.0,SSW,6.9,-,N/A,,Clear,210,2013-04-26 04:55:00
1:15 AM,36.7,28.9,74,30.26,10.0,SSW,6.9,-,N/A,,Clear,210,2013-04-26 05:15:00
1:36 AM,36.9,28.8,72,30.26,10.0,SSW,8.1,-,N/A,,Clear,200,2013-04-26 05:36:00
1:55 AM,36.5,28.4,72,30.27,10.0,SSW,8.1,-,N/A,,Clear,200,2013-04-26 05:55:00
2:04 AM,37.0,28.2,70,30.27,10.0,SSW,8.1,-,N/A,,Clear,200,2013-04-26 06:04:00
2:28 AM,36.9,28.4,71,30.26,10.0,South,8.1,-,N/A,,Clear,190,2013-04-26 06:28:00
3:00 AM,36.0,28.6,75,30.26,10.0,South,9.2,-,N/A,,Clear,190,2013-04-26 07:00:00
3:15 AM,36.0,28.6,75,30.26,10.0,South,10.4,-,N/A,,Clear,190,2013-04-26 07:15:00
3:35 AM,36.5,28.8,74,30.27,10.0,SSW,10.4,-,N/A,,Clear,200,2013-04-26 07:35:00
3:56 AM,35.8,28.6,75,30.27,10.0,South,9.2,-,N/A,,Clear,190,2013-04-26 07:56:00
4:15 AM,35.6,28.8,76,30.27,10.0,South,9.2,-,N/A,,Clear,190,2013-04-26 08:15:00
4:35 AM,35.6,28.8,76,30.27,10.0,South,9.2,-,N/A,,Clear,190,2013-04-26 08:35:00
4:56 AM,35.6,28.9,77,30.27,10.0,South,8.1,-,N/A,,Clear,180,2013-04-26 08:56:00
5:15 AM,35.1,29.3,80,30.27,10.0,South,9.2,-,N/A,,Clear,190,2013-04-26 09:15:00
5:35 AM,35.2,28.8,77,30.28,10.0,South,9.2,-,N/A,,Clear,190,2013-04-26 09:35:00
5:55 AM,35.2,28.8,77,30.28,10.0,South,9.2,-,N/A,,Clear,190,2013-04-26 09:55:00
6:15 AM,35.8,28.8,76,30.28,10.0,South,8.1,-,N/A,,Clear,190,2013-04-26 10:15:00
6:36 AM,35.6,28.6,76,30.29,10.0,South,8.1,-,N/A,,Clear,190,2013-04-26 10:36:00
6:55 AM,36.5,28.9,74,30.29,10.0,South,9.2,-,N/A,,Clear,180,2013-04-26 10:55:00
7:15 AM,37.0,29.1,73,30.28,10.0,South,6.9,-,N/A,,Clear,170,2013-04-26 11:15:00
7:36 AM,37.9,29.3,71,30.29,10.0,South,8.1,-,N/A,,Clear,170,2013-04-26 11:36:00
7:55 AM,38.5,29.3,70,30.30,10.0,South,9.2,-,N/A,,Clear,180,2013-04-26 11:55:00
8:15 AM,39.2,29.3,68,30.30,10.0,South,6.9,-,N/A,,Clear,170,2013-04-26 12:15:00
8:35 AM,40.1,29.1,65,30.30,10.0,South,8.1,-,N/A,,Clear,180,2013-04-26 12:35:00
8:55 AM,40.1,29.5,66,30.30,10.0,South,5.8,-,N/A,,Clear,180,2013-04-26 12:55:00
9:15 AM,40.8,30.0,65,30.31,10.0,South,4.6,-,N/A,,Clear,170,2013-04-26 13:15:00
9:36 AM,42.6,30.0,61,30.31,10.0,South,9.2,-,N/A,,Clear,170,2013-04-26 13:36:00
9:55 AM,43.7,29.8,58,30.30,10.0,South,9.2,-,N/A,,Clear,190,2013-04-26 13:55:00
10:15 AM,44.6,29.7,56,30.30,10.0,South,5.8,-,N/A,,Mostly Cloudy,170,2013-04-26 14:15:00
10:35 AM,46.4,29.1,51,30.30,10.0,South,5.8,-,N/A,,Scattered Clouds,180,2013-04-26 14:35:00
10:55 AM,47.3,28.9,49,30.30,10.0,SSW,5.8,-,N/A,,Mostly Cloudy,200,2013-04-26 14:55:00
11:15 AM,48.9,28.9,46,30.31,10.0,SSW,9.2,-,N/A,,Mostly Cloudy,200,2013-04-26 15:15:00
11:35 AM,48.2,28.6,47,30.31,10.0,South,6.9,-,N/A,,Mostly Cloudy,190,2013-04-26 15:35:00
11:55 AM,48.0,29.3,48,30.31,10.0,SSW,6.9,-,N/A,,Overcast,210,2013-04-26 15:55:00
12:16 PM,49.3,28.4,45,30.31,10.0,SW,10.4,18.4,N/A,,Overcast,220,2013-04-26 16:16:00
12:35 PM,49.8,28.0,43,30.30,10.0,SSW,13.8,21.9,N/A,,Overcast,200,2013-04-26 16:35:00
12:55 PM,48.2,29.5,48,30.30,10.0,South,12.7,18.4,N/A,,Overcast,190,2013-04-26 16:55:00
1:15 PM,46.8,32.7,58,30.29,7.0,South,9.2,-,N/A,Rain,Light Rain,190,2013-04-26 17:15:00
1:35 PM,45.5,34.0,64,30.28,10.0,South,5.8,-,N/A,Rain,Light Rain,180,2013-04-26 17:35:00
1:55 PM,45.0,35.1,68,30.28,7.0,SSE,5.8,-,N/A,Rain,Light Rain,160,2013-04-26 17:55:00
2:15 PM,44.6,36.0,72,30.29,3.0,South,4.6,-,N/A,,Overcast,190,2013-04-26 18:15:00
2:35 PM,43.3,36.7,77,30.29,4.0,South,4.6,-,0.01,Rain,Light Rain,190,2013-04-26 18:35:00
2:55 PM,42.8,38.1,84,30.27,3.0,ESE,3.5,-,0.04,Rain,Light Rain,110,2013-04-26 18:55:00
3:16 PM,44.6,39.9,84,30.25,10.0,ESE,4.6,-,N/A,,Mostly Cloudy,110,2013-04-26 19:16:00
3:35 PM,45.9,40.8,83,30.24,10.0,East,5.8,-,N/A,,Mostly Cloudy,100,2013-04-26 19:35:00
3:55 PM,46.8,40.3,78,30.22,10.0,East,6.9,-,N/A,,Scattered Clouds,100,2013-04-26 19:55:00
4:16 PM,45.9,38.7,76,30.21,10.0,East,12.7,18.4,N/A,,Scattered Clouds,100,2013-04-26 20:16:00
4:35 PM,45.1,37.9,76,30.20,10.0,East,12.7,19.6,N/A,,Mostly Cloudy,100,2013-04-26 20:35:00
4:55 PM,44.2,37.4,77,30.20,10.0,East,10.4,18.4,N/A,,Scattered Clouds,90,2013-04-26 20:55:00
5:16 PM,44.6,37.0,75,30.18,10.0,East,11.5,20.7,N/A,,Scattered Clouds,100,2013-04-26 21:16:00
5:35 PM,43.2,36.5,77,30.18,10.0,East,15.0,25.3,N/A,,Scattered Clouds,100,2013-04-26 21:35:00
5:55 PM,42.3,36.3,79,30.17,10.0,East,15.0,23.0,N/A,,Clear,100,2013-04-26 21:55:00
6:16 PM,42.4,36.0,78,30.17,10.0,East,12.7,20.7,N/A,,Clear,90,2013-04-26 22:16:00
6:35 PM,43.2,36.1,76,30.17,10.0,East,10.4,20.7,N/A,,Clear,90,2013-04-26 22:35:00
6:55 PM,41.5,36.0,81,30.16,10.0,East,11.5,20.7,N/A,,Clear,90,2013-04-26 22:55:00
7:16 PM,40.8,35.2,80,30.16,10.0,East,6.9,16.1,N/A,,Clear,90,2013-04-26 23:16:00
7:35 PM,39.9,34.7,82,30.17,10.0,East,5.8,-,N/A,,Scattered Clouds,80,2013-04-26 23:35:00
7:55 PM,39.6,34.3,82,30.17,10.0,East,6.9,-,N/A,,Mostly Cloudy,80,2013-04-26 23:55:00
8:16 PM,40.1,34.5,80,30.17,10.0,ENE,5.8,-,N/A,,Overcast,70,2013-04-27 00:16:00
8:35 PM,40.3,34.9,81,30.17,10.0,East,6.9,-,N/A,,Overcast,80,2013-04-27 00:35:00
8:55 PM,40.8,35.1,80,30.17,10.0,ENE,5.8,-,N/A,Rain,Light Rain,70,2013-04-27 00:55:00
9:15 PM,40.6,35.6,82,30.18,10.0,ENE,8.1,-,N/A,Rain,Light Rain,60,2013-04-27 01:15:00
9:35 PM,40.8,36.1,83,30.18,10.0,ENE,8.1,-,N/A,Rain,Light Rain,60,2013-04-27 01:35:00
9:55 PM,41.9,35.8,79,30.18,10.0,NE,10.4,-,N/A,,Overcast,50,2013-04-27 01:55:00
10:15 PM,42.4,36.1,78,30.18,10.0,NE,8.1,-,N/A,,Overcast,50,2013-04-27 02:15:00
10:35 PM,42.3,36.9,81,30.18,10.0,NE,10.4,-,N/A,Rain,Light Rain,50,2013-04-27 02:35:00
10:55 PM,42.1,37.4,83,30.19,10.0,NE,8.1,-,N/A,Rain,Light Rain,50,2013-04-27 02:55:00
11:15 PM,41.9,37.6,85,30.19,10.0,ENE,5.8,-,N/A,Rain,Light Rain,70,2013-04-27 03:15:00
11:35 PM,41.4,37.4,86,30.20,10.0,ENE,8.1,-,N/A,Rain,Rain,70,2013-04-27 03:35:00
11:55 PM,41.9,38.8,89,30.18,7.0,East,6.9,-,N/A,Rain,Light Rain,100,2013-04-27 03:55:00